Location: Antoign�
(47.0844°N, 0.1131°W)
Time: 08:49:21
(UTC+00:00)

OBJECT-B - Pass Details

Date: 03 March 2021
Orbit: 414 x 427 km, 97.0° (Epoch: 11 April)

Event Time Altitude Azimuth Distance (km) Brightness Sun altitude
Exits shadow 19:38:15 39° 23° (NNE) 650 1.5 -19.3°
Drops below altitude 10° 19:40:34 10° 357° (N) 1,514 3.7 -19.7°
Sets 19:42:36 0° 353° (N) 2,382 4.8 -20.0°
